Weather History for KLWT - January, 2015

Change the Weather History Date:

Monday, January 12, 2015

  Actual Average Record
Temperature  
Mean Temperature 15 °F 23 °F  
Max Temperature 27 °F 34 °F 62 °F (1987)
Min Temperature 3 °F 13 °F -32 °F (1916)
Degree Days  
Heating Degree Days 50 42  
Month to date heating degree days 600 504  
Since 1 July heating degree days 3617 3926  
Cooling Degree Days 0 0  
Month to date cooling degree days 0 0  
Year to date cooling degree days 0 0  
Moisture  
Dew Point 8 °F    
Average Humidity 83    
Maximum Humidity 92    
Minimum Humidity 74    
Precipitation  
Precipitation 0.00 in 0.02 in 0.30 in (1907)
Month to date precipitation 0.51 0.24  
Year to date precipitation 0.51 0.24  
Snow  
Snow 0.00 in - - ()
Snow Depth 17.00 in    
Sea Level Pressure  
Sea Level Pressure 30.38 in    
Wind  
Wind Speed 5 mph (SSE)    
Max Wind Speed 13 mph    
Max Gust Speed 14 mph    
Visibility 10 miles    
Events      
T = Trace of Precipitation, MM = Missing Value Source: NWS Daily Summary

Daily Weather History Graph

Daily Weather History Graph

Search for Another Location

Airport or City:

Trip Planner

Search our weather history database for the weather conditions in past years. The results will help you decide how hot, cold, wet, or windy it might be!

Date:

Astronomy

Jan. 12, 2015 Rise Set
Actual Time 8:01 AM MST 4:51 PM MST
Civil Twilight 7:26 AM MST 5:26 PM MST
Nautical Twilight 6:48 AM MST 6:04 PM MST
Astronomical Twilight 6:11 AM MST 6:40 PM MST
Moon No Moon Rise 11:20 AM MST (1/12)
Length of Visible Light 9h 59m
Length of Day
8h 50m
Waning Gibbous, 56% of the Moon is Illuminated
Jan 12
Waning Gibbous
Jan 13
Last Quarter
Jan 20
New
Jan 26
First Quarter
Feb 3
Full

Hourly Weather History & Observations

Time (MST) Temp. Windchill Dew Point Humidity Pressure Visibility Wind Dir Wind Speed Gust Speed Precip Events Conditions
12:54 AM 7.0 °F -5.7 °F 3.9 °F 87% 30.46 in 10.0 mi SE 8.1 mph - N/A   Clear
1:54 AM 3.9 °F -10.4 °F -0.0 °F 84% 30.45 in 10.0 mi ESE 9.2 mph - N/A   Clear
2:54 AM 10.9 °F 0.2 °F 7.0 °F 84% 30.43 in 10.0 mi SE 6.9 mph - N/A   Clear
3:54 AM 9.0 °F -0.9 °F 5.0 °F 84% 30.42 in 10.0 mi ESE 5.8 mph - N/A   Clear
4:54 AM 6.1 °F -2.8 °F 1.9 °F 83% 30.42 in 10.0 mi SSE 4.6 mph - N/A   Clear
5:54 AM 6.1 °F -5.6 °F 1.9 °F 83% 30.41 in 10.0 mi SE 6.9 mph - N/A   Clear
6:54 AM 3.9 °F -6.9 °F 1.0 °F 88% 30.44 in 10.0 mi SE 5.8 mph - N/A   Clear
7:54 AM 6.1 °F -4.3 °F 1.9 °F 83% 30.42 in 10.0 mi SSE 5.8 mph - N/A   Clear
8:54 AM 8.1 °F -4.3 °F 3.9 °F 83% 30.41 in 10.0 mi SE 8.1 mph - N/A   Clear
9:54 AM 12.0 °F 2.7 °F 8.1 °F 84% 30.40 in 10.0 mi SE 5.8 mph - N/A   Clear
10:54 AM 15.1 °F 9.4 °F 12.0 °F 88% 30.37 in 10.0 mi ESE 3.5 mph - N/A   Clear
11:54 AM 19.9 °F 13.4 °F 16.0 °F 85% 30.32 in 10.0 mi East 4.6 mph - N/A   Clear
2:54 PM 19.0 °F 13.9 °F 14.0 °F 81% 30.30 in 10.0 mi South 3.5 mph - N/A   Clear
4:54 PM 25.0 °F 19.3 °F 18.0 °F 75% 30.30 in 10.0 mi ESE 4.6 mph - N/A   Overcast
5:54 PM 21.9 °F 17.2 °F 17.1 °F 82% 30.32 in 10.0 mi SE 3.5 mph - N/A   Overcast
6:54 PM 18.0 °F 9.8 °F 14.0 °F 84% 30.34 in 10.0 mi WSW 5.8 mph - N/A   Scattered Clouds
7:54 PM 12.9 °F 5.2 °F 10.0 °F 88% 30.37 in 10.0 mi West 4.6 mph - N/A   Clear
8:54 PM 12.9 °F 5.2 °F 9.0 °F 84% 30.38 in 10.0 mi SW 4.6 mph - N/A   Clear
9:54 PM 12.9 °F 2.6 °F 10.9 °F 92% 30.37 in 10.0 mi WSW 6.9 mph - N/A   Clear
10:54 PM 15.1 °F 7.7 °F 10.9 °F 84% 30.38 in 10.0 mi SW 4.6 mph - N/A   Overcast
11:54 PM 16.0 °F 6.3 °F 12.0 °F 84% 30.36 in 10.0 mi West 6.9 mph - N/A   Scattered Clouds